Regional Weather Roundup
Issued by NWS Green Bay, WI

Home | Current Version | Previous Version | Graphics & Text | Print | Product List | Glossary Off
Versions: 1 2 3 4 5 6 7 8 9 10 11 12 13 14 15 16 17 18 19 20 21 22 23 24 25 26 27 28 29 30 31 32 33 34 35 36 37 38 39 40 41 42 43 44 45 46 47 48 49 50

000
ASUS43 KGRB 250910
RWRGRB

NORTH-CENTRAL AND NORTHEAST WISCONSIN REGIONAL WEATHER ROUNDUP
NATIONAL WEATHER SERVICE GREEN BAY WI
300 AM CST THU DEC 25 2014

WIZ005-009-010>012-018-019-251000-
NORTH CENTRAL WISCONSIN

CITY           SKY/WX    TMP DP  RH WIND       PRES   REMARKS
IRONWOOD       CLOUDY    30  28  93 SW14      29.51R
MANITOWISH WTR CLOUDY    29  29  98 W15       29.53R
ARBOR VITAE    CLOUDY    32  29  90 W8        29.53R
EAGLE RIVER    CLOUDY    30  30  98 W13       29.52R
LAND O LAKES   LGT SNOW  31  30  95 W7        29.52R
RHINELANDER    CLOUDY    29  26  89 W14       29.55R
PHILLIPS       CLOUDY    30  27  88 SW8       29.55R
ANTIGO         CLOUDY    30  28  91 W13G20    29.57R
TOMAHAWK       CLOUDY    30  27  89 CALM      29.57R
MERRILL        MOCLDY    29  28  94 W6        29.58R
$$

WIZ013-073-251000-
NORTHEAST WISCONSIN

CITY           SKY/WX    TMP DP  RH WIND       PRES   REMARKS
IRON MOUNTAIN  CLOUDY    32  28  85 W8        29.50S
MARINETTE      CLOUDY    34  28  80 W7        29.56R
OCONTO         CLOUDY    32  31  96 W6        29.58R
$$

WIZ017-030-035>037-045-251000-
CENTRAL WISCONSIN

CITY           SKY/WX    TMP DP  RH WIND       PRES   REMARKS
MEDFORD        CLOUDY    31  28  91 SW9       29.58R
WAUSAU         MOCLDY    31  27  85 W7        29.58R
MOSINEE        CLOUDY    32  30  93 SW8       29.60R
MARSHFIELD     CLOUDY    32  29  88 W13       29.61R
WISC RAPIDS    CLOUDY    33  27  78 SW10      29.65R
STEVENS POINT  CLOUDY    31  27  83 SW6       29.62R
WAUPACA        CLEAR     32  29  89 W8        29.63R
SHAWANO        PTCLDY    33  29  88 SW6       29.61R
CLINTONVILLE   CLEAR     32  30  93 W7        29.61R
$$

WIZ038-039-048-051-251000-
FOX VALLEY

CITY           SKY/WX    TMP DP  RH WIND       PRES   REMARKS
NWS GREEN BAY  CLEAR     33  30  88 W12       29.61R
APPLETON       CLEAR     32  30  93 W8        29.63R
OSHKOSH        CLOUDY    34  29  82 W10       29.64R
FOND DU LAC    CLOUDY    34  29  82 W8        29.66R
$$

WIZ022-050-052-251000-
EAST CENTRAL WISCONSIN

CITY           SKY/WX    TMP DP  RH WIND       PRES   REMARKS
STURGEON BAY   MOCLDY    32  27  80 W10       29.59R
MANITOWOC      PTCLDY    34  31  88 W10       29.63R
SHEBOYGAN      CLOUDY    34  30  85 W12       29.65R
$$

LMZ563-521-522-541>543-251000-
LAKESHORE

STATION/POSITION TIME  TEMP    WIND        PRES    VSBY  WAVE
                       AIR SEA DIR/SP/G                  HT/PER
                 (UTC) (F)     (DEG/KT/KT) (MB)    (MI)  (FT/S)
SHEBOYGAN LKSHOR 0900   35 37  270/ 10/ 12 1004.7R
KEWAUNEE LKSHORE 0900   34     260/  6/  9 1001.5S
ALGOMA MARINA    0900          280/  7/ 11   N/A
NORTHPORT PIER   0900   34     270/  6/ 11 1000.3R
SISTER BAY LKSHO 0800          280/ 13/ 15   N/A
CHAMBERS ISLAND  0900   33     230/  8/ 14 1001.0R
MENOMINEE LKSHOR 0900   33     240/ 10/ 13 1002.0R
$$



USA.gov is the U.S. government's official web portal to all federal, state and local government web resources and services.